Regional Weather Roundup
Issued by NWS

Home | Current Version | Previous Version | Text Only | Print | Product List | Glossary On
Versions: 1 2 3 4 5 6 7 8 9 10 11 12 13 14 15 16 17 18 19 20 21 22 23 24 25 26 27 28 29 30 31 32 33 34 35 36 37 38 39 40 41 42 43 44 45 46 47 48 49 50
000
ASUS45 KSLC 311910
RWRUT

UTAH REGIONAL WEATHER ROUNDUP
NATIONAL WEATHER SERVICE SALT LAKE CITY UT
100 PM MDT THU JUL 31 2014

UTZ001>011-023>025-312000-

NORTHERN UTAH

CITY           SKY/WX    TMP DP  RH WIND       PRES   REMARKS
HILL AFB       SUNNY     80  52  38 VRB6      30.22F
LOGAN          SUNNY     77  54  44 N9        30.22F
OGDEN          SUNNY     82  47  29 N7        30.19F
PROVO AIRPORT  MOSUNNY   75  55  50 SW3       30.21F
SALT LAKE CITY MOSUNNY   81  52  36 W8        30.17F
VERNAL         MOSUNNY   77  46  33 SE7       30.24F
WENDOVER       MOSUNNY   82  50  32 SE10      30.18F
HEBER CITY     SUNNY     73  52  46 NW3       30.26F
WEST JORDAN    SUNNY     81  59  47 N6        30.21F

$$

UTZ012>022-026-027-312000-

SOUTHERN UTAH

CITY           SKY/WX    TMP DP  RH WIND       PRES   REMARKS
BRYCE CANYON   MOSUNNY   75  45  34 W14       30.37F
CEDAR CITY     SUNNY     84  46  26 W9        30.22F
MILFORD        SUNNY     86  50  28 N13G21    30.19F
MOAB/CYNLANDS  SUNNY     82  53  36 CALM      30.14F
PRICE          SUNNY     80  43  26 SE6       30.25F
ST GEORGE      CLEAR     95  48  20 W5        30.01F HX  91
KANAB            N/A     88  45  22 SE7       30.18F

$$

REGIONAL REPORTS     COLORADO/ARIZONA

CITY           SKY/WX    TMP DP  RH WIND       PRES   REMARKS
CRAIG, CO      MOSUNNY   67  52  58 SE3       30.29F
GRAND JUNCTION SUNNY     82  55  39 W8        30.17F
RIFLE          MOSUNNY   78  51  38 MISG      30.21F
MONTROSE       MOSUNNY   77  55  46 S6        30.24F
CORTEZ         MOSUNNY   83  50  31 SW7       30.21F
PAGE, AZ       PTSUNNY   92  49  22 N5        30.10F
GRAND CANYON   PTSUNNY   82  44  26 W7        30.29F
KINGMAN        PTSUNNY   98  45  16 W9        30.05F HX  94
FLAGSTAFF      CLOUDY    78  47  33 S15G24    30.33F

$$

REGIONAL REPORTS    NEVADA/IDAHO/WYOMING

CITY           SKY/WX    TMP DP  RH WIND       PRES   REMARKS
LAS VEGAS, NV  MOSUNNY  100  47  16 S5        29.91F HX  96
ELY            CLOUDY    71  49  45 N15       30.34S
ELKO           SUNNY     87  42  20 VRB7      30.20F
POCATELLO, ID  MOSUNNY   86  46  24 N7        30.21F
BURLEY         SUNNY     84  46  26 NE9       30.17F
EVANSTON, WY   MOSUNNY   70  45  40 NE13G21   30.37F
ROCK SPRINGS   MOSUNNY   75  42  30 NE10G20   30.35F

$$



USA.gov is the U.S. government's official web portal to all federal, state and local government web resources and services.